User: anonymous   Login
Location: Aalen
(48.8330°N, 10.1000°E)
Time: 18:50:19
(UTC+02:00)
Language:

Max Valier Satellite - Orbit

View from above orbital plane
View from above orbital plane
View from above satellite
View from above satellite

Ground track
Ground track

The orbit data is extracted from the following two-line orbital elements,

1 42778U 17036P   21267.72582597  .00002446  00000-0  10379-3 0  9997
2 42778  97.2455 313.0507 0011811 177.5337 182.5961 15.23963272236403
Epoch (UTC): 24 September 2021 17:25:11
Eccentricity: 0.0011811
inclination: 97.2455°
perigee height: 486 km
apogee height: 502 km
right ascension of ascending node: 313.0507°
argument of perigee: 177.5337°
revolutions per day: 15.23963272
mean anomaly at epoch: 182.5961°
orbit number at epoch: 23640

The dashed part of the orbit path shows where the satellite is in the earth's shadow,  

DLR